Hourly Weather Rusko

Today, 15 April, Thursday

Time Temperature Precipitation Wind Pressure Humidity
00:00 +1°C° 0 mm 3 mps 755 mmHg 82%
01:00 0°C° 0 mm 4 mps 755 mmHg 82%
02:00 0°C° 0.1 mm 4 mps 755 mmHg 85%
03:00 -1°C° 0.1 mm 4 mps 755 mmHg 89%
04:00 -1°C° 0.1 mm 5 mps 755 mmHg 92%
05:00 -1°C° 0.5 mm 5 mps 755 mmHg 94%
06:00 -2°C° 0.5 mm 6 mps 754 mmHg 95%
07:00 -2°C° 0.5 mm 6 mps 754 mmHg 97%
08:00 -2°C° 0.8 mm 6 mps 754 mmHg 97%
09:00 -2°C° 0.8 mm 6 mps 754 mmHg 97%
10:00 -2°C° 0.8 mm 6 mps 754 mmHg 97%
11:00 -2°C° 1.1 mm 6 mps 754 mmHg 97%
12:00 -2°C° 1.1 mm 6 mps 754 mmHg 98%
13:00 -2°C° 1.1 mm 6 mps 753 mmHg 98%
14:00 -1°C° 0.8 mm 6 mps 753 mmHg 98%
15:00 0°C° 0.8 mm 5 mps 753 mmHg 98%
16:00 0°C° 0.8 mm 5 mps 753 mmHg 98%
17:00 0°C° 0.5 mm 4 mps 753 mmHg 98%
18:00 0°C° 0.5 mm 4 mps 753 mmHg 98%
19:00 0°C° 0.5 mm 4 mps 753 mmHg 98%
20:00 0°C° 0.5 mm 4 mps 753 mmHg 98%
21:00 0°C° 0.5 mm 4 mps 753 mmHg 98%
22:00 +1°C° 0.5 mm 3 mps 752 mmHg 99%
23:00 +2°C° 0.2 mm 3 mps 752 mmHg 98%

Tomorrow, 16 April, Friday

Time Temperature Precipitation Wind Pressure Humidity
00:00 +2°C° 0.2 mm 3 mps 752 mmHg 98%
01:00 +1°C° 0.2 mm 4 mps 752 mmHg 98%
02:00 +1°C° 0.2 mm 4 mps 752 mmHg 98%
03:00 +1°C° 0.2 mm 4 mps 752 mmHg 98%
04:00 +1°C° 0.2 mm 4 mps 752 mmHg 98%
05:00 +1°C° 0.4 mm 4 mps 752 mmHg 97%
06:00 +1°C° 0.4 mm 4 mps 753 mmHg 97%
07:00 0°C° 0.4 mm 4 mps 753 mmHg 97%
08:00 +1°C° 0.2 mm 4 mps 753 mmHg 92%
09:00 +3°C° 0.2 mm 4 mps 753 mmHg 87%
10:00 +4°C° 0.2 mm 4 mps 753 mmHg 82%
11:00 +5°C° 0 mm 4 mps 753 mmHg 81%
12:00 +5°C° 0 mm 5 mps 753 mmHg 81%
13:00 +5°C° 0 mm 5 mps 753 mmHg 80%
14:00 +5°C° 0 mm 4 mps 753 mmHg 83%
15:00 +5°C° 0 mm 4 mps 753 mmHg 85%
16:00 +4°C° 0 mm 3 mps 753 mmHg 88%
17:00 +4°C° 0 mm 3 mps 753 mmHg 89%
18:00 +4°C° 0 mm 3 mps 753 mmHg 90%
19:00 +5°C° 0 mm 2 mps 753 mmHg 91%
20:00 +4°C° 0.3 mm 2 mps 753 mmHg 93%
21:00 +4°C° 0.3 mm 2 mps 753 mmHg 95%
22:00 +3°C° 0.3 mm 2 mps 753 mmHg 97%
23:00 +3°C° 0.3 mm 2 mps 753 mmHg 97%

Day after tomorrow, 17 April, Saturday

Time Temperature Precipitation Wind Pressure Humidity
00:00 +3°C° 0.3 mm 2 mps 753 mmHg 97%
01:00 +3°C° 0.3 mm 2 mps 753 mmHg 97%
02:00 +3°C° 0 mm 2 mps 753 mmHg 97%
03:00 +3°C° 0 mm 2 mps 753 mmHg 97%
04:00 +3°C° 0 mm 2 mps 753 mmHg 97%
05:00 +4°C° 0 mm 2 mps 753 mmHg 97%
06:00 +4°C° 0 mm 2 mps 753 mmHg 96%
07:00 +4°C° 0 mm 2 mps 753 mmHg 95%
08:00 +5°C° 0.1 mm 2 mps 753 mmHg 95%
09:00 +5°C° 0.1 mm 2 mps 753 mmHg 95%
10:00 +5°C° 0.1 mm 2 mps 753 mmHg 94%
11:00 +6°C° 0.1 mm 2 mps 753 mmHg 94%
12:00 +6°C° 0.1 mm 2 mps 753 mmHg 93%
13:00 +5°C° 0.1 mm 3 mps 753 mmHg 93%
14:00 +7°C° 0.1 mm 2 mps 753 mmHg 93%
15:00 +7°C° 0.1 mm 2 mps 753 mmHg 94%
16:00 +7°C° 0.1 mm 2 mps 753 mmHg 94%
17:00 +7°C° 0 mm 2 mps 753 mmHg 95%
18:00 +6°C° 0 mm 2 mps 753 mmHg 95%
19:00 +7°C° 0 mm 1 mps 753 mmHg 96%
20:00 +6°C° 0 mm 2 mps 753 mmHg 96%
21:00 +6°C° 0 mm 2 mps 753 mmHg 96%
22:00 +6°C° 0 mm 2 mps 753 mmHg 96%
23:00 +6°C° 0 mm 2 mps 753 mmHg 96%

18 April, Sunday

Time Temperature Precipitation Wind Pressure Humidity
00:00 +6°C° 0 mm 2 mps 753 mmHg 96%
01:00 +6°C° 0 mm 2 mps 753 mmHg 96%
02:00 +6°C° 0.2 mm 2 mps 753 mmHg 96%
03:00 +6°C° 0.2 mm 2 mps 753 mmHg 97%
04:00 +6°C° 0.2 mm 2 mps 752 mmHg 97%
05:00 +6°C° 0.2 mm 2 mps 753 mmHg 96%
06:00 +6°C° 0.2 mm 2 mps 753 mmHg 95%
07:00 +7°C° 0.2 mm 2 mps 753 mmHg 94%
08:00 +8°C° 0.1 mm 3 mps 753 mmHg 86%
09:00 +10°C° 0.1 mm 3 mps 753 mmHg 78%
10:00 +11°C° 0.1 mm 4 mps 753 mmHg 70%
11:00 +11°C° 0.2 mm 3 mps 753 mmHg 68%
12:00 +12°C° 0.2 mm 3 mps 753 mmHg 65%
13:00 +12°C° 0.2 mm 3 mps 752 mmHg 62%
14:00 +12°C° 0.2 mm 3 mps 752 mmHg 64%
15:00 +12°C° 0.2 mm 3 mps 752 mmHg 66%
16:00 +12°C° 0.2 mm 3 mps 752 mmHg 67%
17:00 +11°C° 0.2 mm 3 mps 752 mmHg 73%
18:00 +10°C° 0.2 mm 3 mps 752 mmHg 78%
19:00 +9°C° 0.2 mm 3 mps 752 mmHg 84%
20:00 +8°C° 0 mm 2 mps 753 mmHg 84%
21:00 +8°C° 0 mm 2 mps 753 mmHg 85%
22:00 +8°C° 0 mm 2 mps 753 mmHg 85%
23:00 +9°C° 0 mm 1 mps 753 mmHg 85%

19 April, Monday

Time Temperature Precipitation Wind Pressure Humidity
00:00 +9°C° 0 mm 1 mps 753 mmHg 85%
01:00 +8°C° 0 mm 1 mps 753 mmHg 85%
02:00 +8°C° 0.1 mm 1 mps 752 mmHg 86%
03:00 +8°C° 0.1 mm 1 mps 752 mmHg 88%
04:00 +7°C° 0.1 mm 2 mps 752 mmHg 89%
05:00 +7°C° 0.1 mm 2 mps 752 mmHg 89%
06:00 +9°C° 0.1 mm 1 mps 752 mmHg 89%
07:00 +9°C° 0.1 mm 1 mps 752 mmHg 90%
08:00 +10°C° 0.2 mm 1 mps 752 mmHg 86%
09:00 +9°C° 0.2 mm 2 mps 752 mmHg 83%
10:00 +10°C° 0.2 mm 2 mps 752 mmHg 80%
11:00 +12°C° 0.1 mm 2 mps 752 mmHg 76%
12:00 +13°C° 0.1 mm 2 mps 752 mmHg 71%
13:00 +13°C° 0.1 mm 2 mps 752 mmHg 67%
14:00 +13°C° 0.2 mm 3 mps 752 mmHg 67%
15:00 +13°C° 0.2 mm 4 mps 751 mmHg 67%
16:00 +13°C° 0.2 mm 4 mps 751 mmHg 68%
17:00 +12°C° 0.1 mm 4 mps 751 mmHg 72%
18:00 +10°C° 0.1 mm 4 mps 751 mmHg 77%
19:00 +9°C° 0.1 mm 3 mps 751 mmHg 82%
20:00 +8°C° 0 mm 3 mps 751 mmHg 82%
21:00 +8°C° 0 mm 3 mps 751 mmHg 83%
22:00 +7°C° 0 mm 3 mps 751 mmHg 83%
23:00 +7°C° 0 mm 3 mps 751 mmHg 84%

20 April, Tuesday

Time Temperature Precipitation Wind Pressure Humidity
00:00 +8°C° 0 mm 3 mps 751 mmHg 85%
01:00 +8°C° 0 mm 3 mps 751 mmHg 85%
02:00 +7°C° 0 mm 3 mps 751 mmHg 86%
03:00 +7°C° 0 mm 3 mps 751 mmHg 87%
04:00 +7°C° 0 mm 3 mps 751 mmHg 88%
05:00 +7°C° 0 mm 3 mps 751 mmHg 86%
06:00 +7°C° 0 mm 4 mps 751 mmHg 85%
07:00 +7°C° 0 mm 4 mps 751 mmHg 83%
08:00 +8°C° 0.1 mm 4 mps 751 mmHg 78%
09:00 +10°C° 0.1 mm 4 mps 751 mmHg 72%
10:00 +10°C° 0.1 mm 5 mps 751 mmHg 67%
11:00 +11°C° 0 mm 4 mps 751 mmHg 61%
12:00 +12°C° 0 mm 4 mps 751 mmHg 56%
13:00 +13°C° 0 mm 4 mps 751 mmHg 51%
14:00 +12°C° 0 mm 4 mps 751 mmHg 54%
15:00 +12°C° 0 mm 3 mps 750 mmHg 57%
16:00 +12°C° 0 mm 3 mps 750 mmHg 59%
17:00 +11°C° 0 mm 3 mps 750 mmHg 61%
18:00 +10°C° 0 mm 2 mps 751 mmHg 63%
19:00 +10°C° 0 mm 2 mps 751 mmHg 64%
20:00 +9°C° 0 mm 2 mps 751 mmHg 65%
21:00 +10°C° 0 mm 1 mps 751 mmHg 65%
22:00 +10°C° 0 mm 1 mps 750 mmHg 65%
23:00 +10°C° 0 mm 1 mps 750 mmHg 64%
Show more